O3B FM17 (44114 NORAD) Tracking and Keplerian Element Data

This shows tracking and keplerian element data for the satellite.

Feedback or suggestion? Click here.




ElementValue
Catalog44114
NameO3B FM17
Epoch Orbit540
Epoch Day201.7011467
Epoch Year2019
RAAN10.8368
Inclination0.0456
Eccentricity0.000259
Argument of Perigee109.104
Mean Anonmoly240.0824
Mean Motion5.00116871
Decay Rate-2.6E-07
L11 44114U 19020C 19201.70114670 -.00000026 00000-0 00000-0 0 9994
L22 44114 0.0456 10.8368 0002590 109.1040 240.0824 5.00116871 5406

Live tracking and technical data element details for O3B FM17 (NORAD 44114). O3B FM17 can be tracked NOW for your location showing map with azimuth and elevation plus other details from your city location.

Track the satellite on the map from your city or location and see movement details for azimuth, elevation, latitude, longitude, range, height, and movement on the map or in text.







IsCatalogInMostPopularTable: catalog: 44114, numindb: 32
Update: records affected: 1



GetName: 44114 O3B FM17

Hit Count: updated at: Sun, 21 Jul 2019 14:53:36 GMT